User: anonymous   Login
Location: Fort Wayne
(41.1310°N, 85.1290°W)
Time: 08:39:34
(UTC-04:00)
Language:

IDEFIX/ARIANE 42P - Orbit

View from above orbital plane
View from above orbital plane
View from above satellite
View from above satellite

Ground track
Ground track

The orbit data is extracted from the following two-line orbital elements,

1 27422U 02021B   16150.52073622 -.00000001  00000-0  15774-4 0  9992
2 27422  98.2306 166.0741 0011068 297.0271  62.9782 14.29243089731878
Epoch (UTC): 29 May 2016 12:29:51
Eccentricity: 0.0011068
inclination: 98.2306°
perigee height: 786 km
apogee height: 802 km
right ascension of ascending node: 166.0741°
argument of perigee: 297.0271°
revolutions per day: 14.29243089
mean anomaly at epoch: 62.9782°
orbit number at epoch: 73187

The dashed part of the orbit path shows where the satellite is in the earth's shadow,  

DLR